When you browse on this site, cookies collect data to enhance your experience and personalize the content and advertising you see.
Visit our Privacy Policy to learn more. By continuing to use the site, you agree to this use of cookies and data.

Stündliche Wetter Trujillo

Heute, 8 Juli, Mittwoch

Zeit Temperatur Niederschläge Wind Luftdruck Luftfeuchtigkeit
00:00 +19°C° 0 mm 1 m/S 647 mmHg 86%
01:00 +19°C° 0 mm 1 m/S 646 mmHg 84%
02:00 +19°C° 0 mm 1 m/S 646 mmHg 82%
03:00 +19°C° 0 mm 1 m/S 646 mmHg 81%
04:00 +19°C° 0 mm 1 m/S 646 mmHg 79%
05:00 +20°C° 0 mm 1 m/S 646 mmHg 77%
06:00 +21°C° 0 mm 1 m/S 647 mmHg 74%
07:00 +22°C° 0 mm 1 m/S 648 mmHg 72%
08:00 +23°C° 0 mm 1 m/S 648 mmHg 67%
09:00 +25°C° 0 mm 1 m/S 649 mmHg 62%
10:00 +27°C° 0 mm 1 m/S 649 mmHg 57%
11:00 +27°C° 0.3 mm 1 m/S 649 mmHg 58%
12:00 +27°C° 0.3 mm 1 m/S 648 mmHg 59%
13:00 +27°C° 0.3 mm 1 m/S 648 mmHg 60%
14:00 +27°C° 0.8 mm 1 m/S 647 mmHg 65%
15:00 +26°C° 0.8 mm 1 m/S 646 mmHg 70%
16:00 +25°C° 0.8 mm 1 m/S 646 mmHg 75%
17:00 +24°C° 0.4 mm 1 m/S 646 mmHg 80%
18:00 +22°C° 0.4 mm 1 m/S 645 mmHg 85%
19:00 +20°C° 0.4 mm 1 m/S 645 mmHg 90%
20:00 +19°C° 0.3 mm 2 m/S 646 mmHg 88%
21:00 +18°C° 0.3 mm 2 m/S 646 mmHg 85%
22:00 +18°C° 0.3 mm 2 m/S 646 mmHg 83%
23:00 +18°C° 0 mm 2 m/S 646 mmHg 80%

Morgen, 9 Juli, Donnerstag

Zeit Temperatur Niederschläge Wind Luftdruck Luftfeuchtigkeit
00:00 +18°C° 0 mm 2 m/S 646 mmHg 78%
01:00 +18°C° 0 mm 2 m/S 646 mmHg 76%
02:00 +18°C° 0 mm 2 m/S 646 mmHg 76%
03:00 +18°C° 0 mm 2 m/S 646 mmHg 76%
04:00 +18°C° 0 mm 2 m/S 646 mmHg 76%
05:00 +19°C° 0 mm 1 m/S 646 mmHg 74%
06:00 +20°C° 0 mm 1 m/S 647 mmHg 72%
07:00 +21°C° 0 mm 1 m/S 648 mmHg 71%
08:00 +23°C° 0 mm 1 m/S 648 mmHg 64%
09:00 +25°C° 0 mm 1 m/S 649 mmHg 57%
10:00 +27°C° 0 mm 1 m/S 650 mmHg 50%
11:00 +28°C° 0.1 mm 1 m/S 649 mmHg 47%
12:00 +28°C° 0.1 mm 2 m/S 649 mmHg 44%
13:00 +29°C° 0.1 mm 2 m/S 649 mmHg 41%
14:00 +28°C° 0.1 mm 2 m/S 648 mmHg 46%
15:00 +27°C° 0.1 mm 2 m/S 647 mmHg 50%
16:00 +26°C° 0.1 mm 1 m/S 647 mmHg 54%
17:00 +24°C° 0.1 mm 1 m/S 646 mmHg 63%
18:00 +22°C° 0.1 mm 1 m/S 646 mmHg 72%
19:00 +20°C° 0.1 mm 1 m/S 646 mmHg 81%
20:00 +18°C° 0 mm 2 m/S 646 mmHg 72%
21:00 +18°C° 0 mm 2 m/S 646 mmHg 63%
22:00 +17°C° 0 mm 2 m/S 646 mmHg 54%
23:00 +17°C° 0 mm 2 m/S 646 mmHg 53%

übermorgen, 10 Juli, Freitag

Zeit Temperatur Niederschläge Wind Luftdruck Luftfeuchtigkeit
00:00 +17°C° 0 mm 2 m/S 646 mmHg 52%
01:00 +17°C° 0 mm 2 m/S 646 mmHg 51%
02:00 +16°C° 0 mm 2 m/S 646 mmHg 55%
03:00 +16°C° 0 mm 2 m/S 646 mmHg 60%
04:00 +16°C° 0 mm 2 m/S 646 mmHg 64%
05:00 +17°C° 0 mm 2 m/S 647 mmHg 65%
06:00 +18°C° 0 mm 2 m/S 647 mmHg 67%
07:00 +20°C° 0 mm 1 m/S 648 mmHg 68%
08:00 +22°C° 0 mm 1 m/S 649 mmHg 63%
09:00 +24°C° 0 mm 1 m/S 649 mmHg 58%
10:00 +26°C° 0 mm 1 m/S 650 mmHg 53%
11:00 +26°C° 0.1 mm 1 m/S 649 mmHg 53%
12:00 +27°C° 0.1 mm 1 m/S 649 mmHg 53%
13:00 +27°C° 0.1 mm 1 m/S 649 mmHg 53%
14:00 +26°C° 0.1 mm 1 m/S 648 mmHg 57%
15:00 +26°C° 0.1 mm 1 m/S 647 mmHg 60%
16:00 +25°C° 0.1 mm 1 m/S 647 mmHg 64%
17:00 +23°C° 0.1 mm 1 m/S 647 mmHg 72%
18:00 +22°C° 0.1 mm 1 m/S 646 mmHg 80%
19:00 +20°C° 0.1 mm 1 m/S 646 mmHg 88%
20:00 +20°C° 0 mm 1 m/S 647 mmHg 87%
21:00 +19°C° 0 mm 1 m/S 647 mmHg 86%
22:00 +18°C° 0 mm 2 m/S 647 mmHg 85%
23:00 +19°C° 0 mm 1 m/S 647 mmHg 84%

11 Juli, Samstag

Zeit Temperatur Niederschläge Wind Luftdruck Luftfeuchtigkeit
00:00 +18°C° 0 mm 1 m/S 646 mmHg 82%
01:00 +18°C° 0 mm 1 m/S 646 mmHg 80%
02:00 +18°C° 0 mm 1 m/S 646 mmHg 80%
03:00 +18°C° 0 mm 1 m/S 646 mmHg 80%
04:00 +18°C° 0 mm 1 m/S 646 mmHg 80%
05:00 +19°C° 0 mm 1 m/S 646 mmHg 79%
06:00 +20°C° 0 mm 1 m/S 647 mmHg 77%
07:00 +21°C° 0 mm 1 m/S 647 mmHg 75%
08:00 +22°C° 0.1 mm 1 m/S 648 mmHg 70%
09:00 +24°C° 0.1 mm 1 m/S 649 mmHg 65%
10:00 +26°C° 0.1 mm 1 m/S 650 mmHg 60%
11:00 +26°C° 0.8 mm 1 m/S 649 mmHg 65%
12:00 +25°C° 0.8 mm 1 m/S 648 mmHg 70%
13:00 +25°C° 0.8 mm 1 m/S 648 mmHg 75%
14:00 +24°C° 1.3 mm 1 m/S 647 mmHg 79%
15:00 +23°C° 1.3 mm 1 m/S 647 mmHg 83%
16:00 +23°C° 1.3 mm 1 m/S 646 mmHg 87%
17:00 +22°C° 0.4 mm 1 m/S 646 mmHg 89%
18:00 +21°C° 0.4 mm 1 m/S 646 mmHg 91%
19:00 +20°C° 0.4 mm 1 m/S 646 mmHg 93%
20:00 +19°C° 0 mm 1 m/S 646 mmHg 92%
21:00 +19°C° 0 mm 1 m/S 646 mmHg 91%
22:00 +19°C° 0 mm 1 m/S 647 mmHg 90%
23:00 +19°C° 0 mm 1 m/S 646 mmHg 89%

12 Juli, Sonntag

Zeit Temperatur Niederschläge Wind Luftdruck Luftfeuchtigkeit
00:00 +19°C° 0 mm 1 m/S 646 mmHg 88%
01:00 +18°C° 0 mm 1 m/S 645 mmHg 87%
02:00 +18°C° 0 mm 1 m/S 645 mmHg 87%
03:00 +18°C° 0 mm 1 m/S 645 mmHg 86%
04:00 +18°C° 0 mm 1 m/S 646 mmHg 85%
05:00 +19°C° 0 mm 1 m/S 646 mmHg 83%
06:00 +20°C° 0 mm 1 m/S 647 mmHg 81%
07:00 +21°C° 0 mm 1 m/S 647 mmHg 79%
08:00 +22°C° 0.1 mm 1 m/S 648 mmHg 75%
09:00 +24°C° 0.1 mm 1 m/S 649 mmHg 71%
10:00 +25°C° 0.1 mm 1 m/S 649 mmHg 68%
11:00 +25°C° 0.9 mm 1 m/S 649 mmHg 71%
12:00 +25°C° 0.9 mm 1 m/S 648 mmHg 75%
13:00 +24°C° 0.9 mm 1 m/S 648 mmHg 78%
14:00 +24°C° 1.2 mm 1 m/S 647 mmHg 80%
15:00 +23°C° 1.2 mm 1 m/S 646 mmHg 82%
16:00 +23°C° 1.2 mm 1 m/S 646 mmHg 84%
17:00 +22°C° 0.1 mm 1 m/S 646 mmHg 85%
18:00 +21°C° 0.1 mm 1 m/S 646 mmHg 87%
19:00 +20°C° 0.1 mm 1 m/S 646 mmHg 88%
20:00 +20°C° 0.1 mm 1 m/S 647 mmHg 88%
21:00 +19°C° 0.1 mm 1 m/S 647 mmHg 89%
22:00 +18°C° 0.1 mm 2 m/S 647 mmHg 89%
23:00 +18°C° 0.1 mm 2 m/S 647 mmHg 88%

13 Juli, Montag

Zeit Temperatur Niederschläge Wind Luftdruck Luftfeuchtigkeit
00:00 +18°C° 0.1 mm 2 m/S 647 mmHg 87%
01:00 +19°C° 0.1 mm 1 m/S 647 mmHg 86%
02:00 +19°C° 0 mm 1 m/S 647 mmHg 86%
03:00 +19°C° 0 mm 1 m/S 647 mmHg 85%
04:00 +18°C° 0 mm 1 m/S 646 mmHg 85%
05:00 +19°C° 0 mm 1 m/S 647 mmHg 81%
06:00 +20°C° 0 mm 1 m/S 648 mmHg 78%
07:00 +21°C° 0 mm 1 m/S 648 mmHg 75%
08:00 +23°C° 0 mm 1 m/S 649 mmHg 70%
09:00 +24°C° 0 mm 1 m/S 650 mmHg 65%
10:00 +26°C° 0 mm 1 m/S 650 mmHg 60%
11:00 +26°C° 0.5 mm 1 m/S 650 mmHg 60%
12:00 +27°C° 0.5 mm 1 m/S 649 mmHg 61%
13:00 +27°C° 0.5 mm 1 m/S 649 mmHg 62%
14:00 +26°C° 0.8 mm 1 m/S 648 mmHg 67%
15:00 +25°C° 0.8 mm 1 m/S 648 mmHg 71%
16:00 +24°C° 0.8 mm 1 m/S 647 mmHg 76%
17:00 +23°C° 0.4 mm 1 m/S 647 mmHg 80%
18:00 +21°C° 0.4 mm 1 m/S 647 mmHg 84%
19:00 +19°C° 0.4 mm 1 m/S 647 mmHg 88%
20:00 +18°C° 0.1 mm 2 m/S 647 mmHg 85%
21:00 +18°C° 0.1 mm 2 m/S 647 mmHg 83%
22:00 +17°C° 0.1 mm 2 m/S 647 mmHg 81%
23:00 +17°C° 0 mm 2 m/S 647 mmHg 79%
Mehr zeigen